Time,TemperatureF,DewpointF,PressureIn,WindDirection,WindDirectionDegrees,WindSpeedMPH,WindSpeedGustMPH,Humidity,HourlyPrecipIn,Conditions,Clouds,dailyrainin,SoftwareType,DateUTC
2013-01-08 00:05:00,32.4,29.0,30.03,West,259,1.0,6.0,86,0.00,,,0.00,weatherlink.com 1.10,2013-01-08 06:05:00,
2013-01-08 00:20:00,32.2,29.0,30.03,WSW,253,2.0,4.0,86,0.00,,,0.00,weatherlink.com 1.10,2013-01-08 06:20:00,
2013-01-08 00:35:00,32.0,29.0,30.04,West,267,1.0,3.0,87,0.00,,,0.00,weatherlink.com 1.10,2013-01-08 06:35:00,
2013-01-08 00:50:00,31.9,29.0,30.04,WSW,244,2.0,7.0,87,0.00,,,0.00,weatherlink.com 1.10,2013-01-08 06:50:00,
2013-01-08 01:05:00,31.6,28.0,30.04,SW,236,1.0,8.0,87,0.00,,,0.00,weatherlink.com 1.10,2013-01-08 07:05:00,
2013-01-08 01:20:00,31.2,28.0,30.04,SW,219,2.0,3.0,88,0.00,,,0.00,weatherlink.com 1.10,2013-01-08 07:20:00,
2013-01-08 01:35:00,30.7,28.0,30.04,SW,220,0.0,2.0,89,0.00,,,0.00,weatherlink.com 1.10,2013-01-08 07:35:00,
2013-01-08 01:50:00,30.1,28.0,30.04,SSW,205,0.0,1.0,90,0.00,,,0.00,weatherlink.com 1.10,2013-01-08 07:50:00,
2013-01-08 02:05:00,29.1,27.0,30.05,SSW,207,0.0,1.0,91,0.00,,,0.00,weatherlink.com 1.10,2013-01-08 08:05:00,
2013-01-08 02:20:00,28.9,27.0,30.04,SSW,207,0.0,0.0,91,0.00,,,0.00,weatherlink.com 1.10,2013-01-08 08:20:00,
2013-01-08 02:35:00,29.1,28.0,30.05,West,259,0.0,2.0,94,0.00,,,0.00,weatherlink.com 1.10,2013-01-08 08:35:00,
2013-01-08 02:50:00,28.6,26.0,30.05,West,260,0.0,1.0,91,0.00,,,0.00,weatherlink.com 1.10,2013-01-08 08:50:00,
2013-01-08 03:05:00,27.2,26.0,30.04,ESE,110,1.0,1.0,94,0.00,,,0.00,weatherlink.com 1.10,2013-01-08 09:05:00,
2013-01-08 03:20:00,26.5,25.0,30.04,North,6,1.0,2.0,94,0.00,,,0.00,weatherlink.com 1.10,2013-01-08 09:20:00,
2013-01-08 03:35:00,26.6,25.0,30.04,NNE,15,0.0,0.0,92,0.00,,,0.00,weatherlink.com 1.10,2013-01-08 09:35:00,
2013-01-08 03:50:00,25.9,25.0,30.04,SE,145,0.0,1.0,95,0.00,,,0.00,weatherlink.com 1.10,2013-01-08 09:50:00,
2013-01-08 04:05:00,25.9,25.0,30.03,North,8,0.0,1.0,97,0.00,,,0.00,weatherlink.com 1.10,2013-01-08 10:05:00,
2013-01-08 04:20:00,25.4,24.0,30.03,North,8,0.0,1.0,95,0.00,,,0.00,weatherlink.com 1.10,2013-01-08 10:20:00,
2013-01-08 04:35:00,26.1,25.0,30.03,East,91,0.0,1.0,95,0.00,,,0.00,weatherlink.com 1.10,2013-01-08 10:35:00,
2013-01-08 04:50:00,27.5,26.0,30.03,SSE,166,0.0,1.0,95,0.00,,,0.00,weatherlink.com 1.10,2013-01-08 10:50:00,
2013-01-08 05:05:00,26.4,25.0,30.03,SSE,166,0.0,1.0,93,0.00,,,0.00,weatherlink.com 1.10,2013-01-08 11:05:00,
2013-01-08 05:20:00,27.3,26.0,30.03,SE,136,0.0,1.0,96,0.00,,,0.00,weatherlink.com 1.10,2013-01-08 11:20:00,
2013-01-08 05:50:00,27.0,26.0,30.03,SE,128,0.0,2.0,94,0.00,,,0.00,weatherlink.com 1.10,2013-01-08 11:50:00,
2013-01-08 06:05:00,25.6,25.0,30.03,SE,126,0.0,1.0,96,0.00,,,0.00,weatherlink.com 1.10,2013-01-08 12:05:00,
2013-01-08 06:20:00,24.7,24.0,30.04,North,359,0.0,1.0,95,0.00,,,0.00,weatherlink.com 1.10,2013-01-08 12:20:00,
2013-01-08 06:35:00,24.5,24.0,30.04,North,359,0.0,0.0,96,0.00,,,0.00,weatherlink.com 1.10,2013-01-08 12:35:00,
2013-01-08 06:50:00,24.5,24.0,30.04,North,358,0.0,0.0,97,0.00,,,0.00,weatherlink.com 1.10,2013-01-08 12:50:00,
2013-01-08 07:05:00,25.2,25.0,30.05,ESE,108,0.0,1.0,98,0.00,,,0.00,weatherlink.com 1.10,2013-01-08 13:05:00,
2013-01-08 07:20:00,25.5,25.0,30.05,East,96,0.0,1.0,97,0.00,,,0.00,weatherlink.com 1.10,2013-01-08 13:20:00,
2013-01-08 07:35:00,25.8,25.0,30.05,East,95,0.0,1.0,97,0.00,,,0.00,weatherlink.com 1.10,2013-01-08 13:35:00,
2013-01-08 07:50:00,25.6,24.0,30.05,ENE,77,0.0,1.0,95,0.00,,,0.00,weatherlink.com 1.10,2013-01-08 13:50:00,
2013-01-08 08:05:00,25.9,25.0,30.06,NNE,29,0.0,1.0,96,0.00,,,0.00,weatherlink.com 1.10,2013-01-08 14:05:00,
2013-01-08 08:20:00,27.2,26.0,30.06,ESE,104,0.0,2.0,96,0.00,,,0.00,weatherlink.com 1.10,2013-01-08 14:20:00,
2013-01-08 08:35:00,28.3,27.0,30.06,SE,125,0.0,1.0,93,0.00,,,0.00,weatherlink.com 1.10,2013-01-08 14:35:00,
2013-01-08 08:50:00,29.4,27.0,30.06,SE,144,1.0,2.0,92,0.00,,,0.00,weatherlink.com 1.10,2013-01-08 14:50:00,
2013-01-08 09:06:00,30.8,28.0,30.06,SE,140,1.0,6.0,89,0.00,,,0.00,weatherlink.com 1.10,2013-01-08 15:06:00,
2013-01-08 09:21:00,31.4,28.0,30.06,SE,127,2.0,6.0,88,0.00,,,0.00,weatherlink.com 1.10,2013-01-08 15:21:00,
2013-01-08 09:36:00,31.8,28.0,30.06,South,169,0.0,5.0,87,0.00,,,0.00,weatherlink.com 1.10,2013-01-08 15:36:00,
2013-01-08 09:51:00,32.1,28.0,30.06,SSE,167,0.0,5.0,86,0.00,,,0.00,weatherlink.com 1.10,2013-01-08 15:51:00,
2013-01-08 10:06:00,32.6,28.0,30.07,SSE,150,4.0,6.0,84,0.00,,,0.00,weatherlink.com 1.10,2013-01-08 16:06:00,
2013-01-08 10:21:00,32.9,29.0,30.06,SSE,167,2.0,6.0,84,0.00,,,0.00,weatherlink.com 1.10,2013-01-08 16:21:00,
2013-01-08 10:36:00,33.6,29.0,30.06,SE,142,0.0,6.0,83,0.00,,,0.00,weatherlink.com 1.10,2013-01-08 16:36:00,
2013-01-08 10:51:00,33.9,29.0,30.05,South,189,1.0,8.0,81,0.00,,,0.00,weatherlink.com 1.10,2013-01-08 16:51:00,
2013-01-08 11:06:00,34.2,29.0,30.04,SW,218,2.0,7.0,81,0.00,,,0.00,weatherlink.com 1.10,2013-01-08 17:06:00,
2013-01-08 11:21:00,34.8,29.0,30.04,South,184,1.0,7.0,80,0.00,,,0.00,weatherlink.com 1.10,2013-01-08 17:21:00,
2013-01-08 11:36:00,35.7,30.0,30.03,SSW,205,4.0,6.0,79,0.00,,,0.00,weatherlink.com 1.10,2013-01-08 17:36:00,
2013-01-08 11:51:00,35.7,30.0,30.02,SSW,210,3.0,7.0,79,0.00,,,0.00,weatherlink.com 1.10,2013-01-08 17:51:00,
2013-01-08 12:06:00,36.1,30.0,30.01,SSE,165,5.0,8.0,78,0.00,,,0.00,weatherlink.com 1.10,2013-01-08 18:06:00,
2013-01-08 12:21:00,37.2,31.0,30.00,South,189,1.0,6.0,78,0.00,,,0.00,weatherlink.com 1.10,2013-01-08 18:21:00,
2013-01-08 12:36:00,38.2,31.0,30.00,SE,139,3.0,9.0,76,0.00,,,0.00,weatherlink.com 1.10,2013-01-08 18:36:00,
2013-01-08 12:51:00,38.8,32.0,29.99,SW,231,5.0,9.0,76,0.00,,,0.00,weatherlink.com 1.10,2013-01-08 18:51:00,
2013-01-08 13:06:00,39.0,32.0,29.99,SSW,200,0.0,11.0,76,0.00,,,0.00,weatherlink.com 1.10,2013-01-08 19:06:00,
2013-01-08 13:21:00,39.3,32.0,29.98,SE,141,7.0,16.0,75,0.00,,,0.00,weatherlink.com 1.10,2013-01-08 19:21:00,
2013-01-08 13:51:00,39.2,32.0,29.98,SSW,197,7.0,12.0,76,0.00,,,0.00,weatherlink.com 1.10,2013-01-08 19:51:00,
2013-01-08 14:06:00,38.9,32.0,29.97,SE,138,2.0,9.0,77,0.00,,,0.00,weatherlink.com 1.10,2013-01-08 20:06:00,
2013-01-08 14:21:00,39.5,33.0,29.97,SSE,162,1.0,10.0,77,0.00,,,0.00,weatherlink.com 1.10,2013-01-08 20:21:00,
2013-01-08 14:36:00,40.1,33.0,29.97,SSE,148,2.0,12.0,75,0.00,,,0.00,weatherlink.com 1.10,2013-01-08 20:36:00,
2013-01-08 14:51:00,41.4,34.0,29.96,SSE,158,10.0,13.0,74,0.01,,,0.01,weatherlink.com 1.10,2013-01-08 20:51:00,
2013-01-08 15:06:00,42.0,34.0,29.96,South,191,5.0,14.0,73,0.01,,,0.01,weatherlink.com 1.10,2013-01-08 21:06:00,
2013-01-08 15:21:00,41.7,34.0,29.96,SSW,205,4.0,12.0,73,0.01,,,0.01,weatherlink.com 1.10,2013-01-08 21:21:00,
2013-01-08 15:36:00,41.5,34.0,29.95,South,177,7.0,8.0,75,0.01,,,0.01,weatherlink.com 1.10,2013-01-08 21:36:00,
2013-01-08 15:51:00,41.2,34.0,29.95,SSE,155,2.0,8.0,76,0.00,,,0.01,weatherlink.com 1.10,2013-01-08 21:51:00,
2013-01-08 16:08:00,40.4,34.0,29.94,SE,135,6.0,11.0,78,0.00,,,0.01,weatherlink.com 1.10,2013-01-08 22:08:00,
2013-01-08 16:21:00,39.7,34.0,29.93,SSE,160,2.0,11.0,79,0.00,,,0.01,weatherlink.com 1.10,2013-01-08 22:21:00,
2013-01-08 16:36:00,38.9,34.0,29.93,SE,133,5.0,10.0,81,0.00,,,0.01,weatherlink.com 1.10,2013-01-08 22:36:00,
2013-01-08 16:51:00,38.6,34.0,29.93,SE,140,4.0,9.0,82,0.00,,,0.01,weatherlink.com 1.10,2013-01-08 22:51:00,
2013-01-08 17:06:00,38.5,34.0,29.93,South,177,5.0,13.0,83,0.00,,,0.01,weatherlink.com 1.10,2013-01-08 23:06:00,
2013-01-08 17:22:00,38.3,34.0,29.92,SSW,195,2.0,11.0,84,0.00,,,0.01,weatherlink.com 1.10,2013-01-08 23:22:00,
2013-01-08 17:37:00,38.4,34.0,29.93,SSW,200,5.0,12.0,84,0.00,,,0.01,weatherlink.com 1.10,2013-01-08 23:37:00,
2013-01-08 17:52:00,38.6,34.0,29.93,SSE,159,3.0,11.0,84,0.00,,,0.01,weatherlink.com 1.10,2013-01-08 23:52:00,
2013-01-08 18:07:00,39.4,34.0,29.93,SSE,162,3.0,11.0,82,0.00,,,0.01,weatherlink.com 1.10,2013-01-09 00:07:00,
2013-01-08 18:22:00,39.4,34.0,29.94,SSW,203,5.0,13.0,81,0.00,,,0.01,weatherlink.com 1.10,2013-01-09 00:22:00,
2013-01-08 18:37:00,39.5,34.0,29.95,SSW,194,9.0,14.0,81,0.00,,,0.01,weatherlink.com 1.10,2013-01-09 00:37:00,
2013-01-08 18:52:00,38.9,34.0,29.95,South,190,6.0,11.0,82,0.00,,,0.01,weatherlink.com 1.10,2013-01-09 00:52:00,
2013-01-08 19:07:00,39.2,34.0,29.95,SW,233,9.0,15.0,81,0.00,,,0.01,weatherlink.com 1.10,2013-01-09 01:07:00,
2013-01-08 19:22:00,39.3,34.0,29.96,South,174,7.0,12.0,81,0.00,,,0.01,weatherlink.com 1.10,2013-01-09 01:22:00,
2013-01-08 19:37:00,39.2,34.0,29.96,SW,222,4.0,10.0,80,0.00,,,0.01,weatherlink.com 1.10,2013-01-09 01:37:00,
2013-01-08 19:52:00,39.0,33.0,29.96,SW,221,6.0,13.0,80,0.00,,,0.01,weatherlink.com 1.10,2013-01-09 01:52:00,
2013-01-08 20:07:00,38.6,33.0,29.96,SW,226,4.0,10.0,81,0.00,,,0.01,weatherlink.com 1.10,2013-01-09 02:07:00,
2013-01-08 20:22:00,38.6,33.0,29.95,SSW,207,6.0,10.0,81,0.00,,,0.01,weatherlink.com 1.10,2013-01-09 02:22:00,
2013-01-08 20:37:00,38.5,33.0,29.95,South,179,5.0,9.0,81,0.00,,,0.01,weatherlink.com 1.10,2013-01-09 02:37:00,
2013-01-08 20:52:00,38.9,33.0,29.95,SSW,201,5.0,13.0,80,0.00,,,0.01,weatherlink.com 1.10,2013-01-09 02:52:00,
2013-01-08 21:22:00,39.3,33.0,29.95,SSW,207,7.0,16.0,79,0.00,,,0.01,weatherlink.com 1.10,2013-01-09 03:22:00,
2013-01-08 21:37:00,39.3,33.0,29.94,SSW,200,3.0,17.0,79,0.00,,,0.01,weatherlink.com 1.10,2013-01-09 03:37:00,
2013-01-08 21:52:00,39.4,33.0,29.94,SSW,205,8.0,11.0,79,0.00,,,0.01,weatherlink.com 1.10,2013-01-09 03:52:00,
2013-01-08 22:07:00,39.4,33.0,29.94,SW,219,4.0,12.0,79,0.00,,,0.01,weatherlink.com 1.10,2013-01-09 04:07:00,
2013-01-08 22:22:00,39.5,33.0,29.94,SSW,203,6.0,12.0,78,0.00,,,0.01,weatherlink.com 1.10,2013-01-09 04:22:00,
2013-01-08 22:37:00,40.2,34.0,29.94,SW,224,3.0,12.0,77,0.00,,,0.01,weatherlink.com 1.10,2013-01-09 04:37:00,
2013-01-08 22:53:00,39.6,33.0,29.94,SW,233,4.0,12.0,78,0.00,,,0.01,weatherlink.com 1.10,2013-01-09 04:53:00,
2013-01-08 23:07:00,39.0,33.0,29.94,SW,219,7.0,10.0,80,0.00,,,0.01,weatherlink.com 1.10,2013-01-09 05:07:00,
2013-01-08 23:22:00,39.3,33.0,29.94,WSW,255,5.0,18.0,79,0.00,,,0.01,weatherlink.com 1.10,2013-01-09 05:22:00,
2013-01-08 23:37:00,38.8,33.0,29.95,WSW,243,7.0,10.0,80,0.00,,,0.01,weatherlink.com 1.10,2013-01-09 05:37:00,
2013-01-08 23:52:00,38.5,33.0,29.96,WSW,245,5.0,13.0,81,0.00,,,0.01,weatherlink.com 1.10,2013-01-09 05:52:00,